MNO442 FABL-FVFA

Flight info

Callsign MNO442
Flight time N/A
Altitude 33000
Route OKTIG1B OKTIG UZ4 TEVAR DCT GAV UA405 UTRUK UB540 ETMIT/N0470F340 UN309 BONAL UM309 VFA
Aircraft B738/M-SDE2E3FGHIRWXY/LB1

Departure

Time 2026-05-05 10:08
Airport Bram Fischer International Airport (FABL)

Arrival

Time N/A
Airport Victoria Falls International Airport (FVFA)
Time Latitude Longitude Altitude Speed Heading
2026-05-05 09:57 -29.10040 26.30003 4423 ft 0 kts 180°
2026-05-05 10:04 -29.10050 26.30003 4423 ft 4 kts 181°
2026-05-05 10:04 -29.10099 26.30002 4422 ft 10 kts 181°
2026-05-05 10:05 -29.10181 26.29999 4423 ft 13 kts 181°
2026-05-05 10:05 -29.10240 26.29998 4422 ft 13 kts 180°
2026-05-05 10:05 -29.10327 26.29998 4422 ft 12 kts 180°
2026-05-05 10:05 -29.10412 26.30001 4422 ft 12 kts 170°
2026-05-05 10:06 -29.10488 26.30078 4422 ft 12 kts 105°
2026-05-05 10:06 -29.10496 26.30139 4423 ft 11 kts 91°
2026-05-05 10:06 -29.10487 26.30193 4424 ft 2 kts 68°
2026-05-05 10:06 -29.10480 26.30204 4424 ft 2 kts 54°
2026-05-05 10:07 -29.10464 26.30222 4424 ft 7 kts 31°
2026-05-05 10:07 -29.10373 26.30234 4424 ft 23 kts
2026-05-05 10:07 -29.09972 26.30235 4423 ft 92 kts
2026-05-05 10:07 -29.09113 26.30237 4429 ft 151 kts 358°
2026-05-05 10:08 -29.07944 26.30238 4750 ft 180 kts 359°
2026-05-05 10:08 -29.06684 26.30240 5564 ft 182 kts 357°
2026-05-05 10:08 -29.05378 26.30273 6139 ft 189 kts 358°
2026-05-05 10:08 -29.04019 26.30335 6510 ft 205 kts 357°
2026-05-05 10:09 -29.02598 26.30376 7146 ft 203 kts 357°
2026-05-05 10:09 -29.01143 26.30390 7543 ft 219 kts 355°
2026-05-05 10:09 -28.99560 26.30732 7696 ft 254 kts 20°
2026-05-05 10:09 -28.98032 26.32027 7948 ft 283 kts 37°
2026-05-05 10:10 -28.96600 26.33509 9150 ft 270 kts 36°
2026-05-05 10:10 -28.95245 26.34942 10285 ft 264 kts 36°
2026-05-05 10:10 -28.93832 26.36362 10851 ft 278 kts 34°
2026-05-05 10:10 -28.93288 26.36886 11045 ft 281 kts 32°
2026-05-05 10:11 -28.92936 26.37209 11182 ft 282 kts 32°
2026-05-05 10:11 -28.91377 26.38624 11846 ft 292 kts 33°
2026-05-05 10:11 -28.89781 26.40111 12513 ft 301 kts 31°
2026-05-05 10:11 -28.88072 26.41613 12686 ft 326 kts 30°
2026-05-05 10:12 -28.86199 26.43231 12878 ft 349 kts 31°
2026-05-05 10:12 -28.85558 26.43787 12933 ft 356 kts 31°
2026-05-05 10:12 -28.85126 26.44162 12969 ft 361 kts 31°
2026-05-05 10:12 -28.83090 26.45950 13354 ft 375 kts 32°
2026-05-05 10:13 -28.81018 26.47798 13985 ft 380 kts 32°
2026-05-05 10:13 -28.78940 26.49668 14689 ft 381 kts 32°
2026-05-05 10:13 -28.76861 26.51545 15431 ft 382 kts 32°
2026-05-05 10:13 -28.76290 26.52062 15627 ft 383 kts 32°
2026-05-05 10:14 -28.75758 26.52542 15811 ft 383 kts 31°
2026-05-05 10:14 -28.73666 26.54434 16491 ft 384 kts 31°
2026-05-05 10:14 -28.71565 26.56331 17153 ft 386 kts 31°
2026-05-05 10:14 -28.69445 26.58243 17738 ft 390 kts 31°
2026-05-05 10:15 -28.67309 26.60167 18339 ft 392 kts 31°
2026-05-05 10:15 -28.65160 26.62102 18855 ft 395 kts 31°
2026-05-05 10:15 -28.62994 26.64052 19358 ft 398 kts 30°
2026-05-05 10:15 -28.60813 26.66014 19844 ft 401 kts 30°
2026-05-05 10:16 -28.58615 26.67992 20327 ft 404 kts 30°
2026-05-05 10:16 -28.56397 26.69985 20802 ft 407 kts 30°
2026-05-05 10:16 -28.54165 26.71992 20963 ft 407 kts 30°
2026-05-05 10:16 -28.51971 26.73965 20979 ft 409 kts 30°
2026-05-05 10:17 -28.49735 26.75971 20991 ft 409 kts 30°
2026-05-05 10:17 -28.47497 26.77973 20990 ft 408 kts 29°
2026-05-05 10:17 -28.45194 26.79867 21156 ft 412 kts 26°
2026-05-05 10:17 -28.42809 26.81703 21624 ft 413 kts 25°
2026-05-05 10:18 -28.40419 26.83511 22191 ft 412 kts 25°
2026-05-05 10:18 -28.38033 26.85317 22732 ft 412 kts 25°
2026-05-05 10:18 -28.35643 26.87135 23159 ft 415 kts 25°
2026-05-05 10:18 -28.33232 26.88977 23479 ft 421 kts 26°
2026-05-05 10:19 -28.30818 26.90829 23772 ft 425 kts 26°
2026-05-05 10:19 -28.28359 26.92724 24145 ft 426 kts 26°
2026-05-05 10:19 -28.25902 26.94620 24522 ft 427 kts 26°
2026-05-05 10:19 -28.23440 26.96519 24865 ft 430 kts 26°
2026-05-05 10:20 -28.20954 26.98434 25188 ft 432 kts 26°
2026-05-05 10:20 -28.16127 27.02147 25830 ft 437 kts 26°
2026-05-05 10:20 -28.06074 27.09869 27232 ft 445 kts 26°